Location: Albany
(35.0000°S, 118.0000°E)
Time: 22:13:23
(UTC-04:00)

Cosmos 1626 - Visible Passes

Search period start: 20 October 2014 00:00
Search period end: 30 October 2014 00:00
Orbit: 516 x 519 km, 82.5° (Epoch: 19 October)

Date Brightness Start Highest point End Pass type
(mag) Time Alt. Az. Time Alt. Az. Time Alt. Az.
20 Oct 2.1 07:34:30 10° N 07:38:20 75° E 07:42:14 10° S visible
21 Oct 2.2 07:20:07 10° N 07:23:54 60° E 07:27:45 10° SSE visible
22 Oct 2.4 07:05:45 10° NNE 07:09:28 48° E 07:13:14 10° SSE visible
23 Oct 2.7 06:51:26 10° NNE 06:55:01 39° E 06:58:39 10° SSE visible
23 Oct 5.7 08:29:54 10° W 08:30:57 11° WSW 08:32:00 10° WSW visible
24 Oct 5.5 08:14:29 10° WNW 08:16:24 13° WSW 08:18:19 10° SW visible
25 Oct 5.4 07:59:24 10° WNW 08:01:50 16° WSW 08:04:17 10° SW visible
26 Oct 5.2 07:44:27 10° WNW 07:47:16 19° WSW 07:50:06 10° SSW visible
27 Oct 5.0 07:29:35 10° NW 07:32:41 23° WSW 07:35:50 10° SSW visible
28 Oct 4.6 07:14:46 10° NW 07:18:06 28° WSW 07:21:30 10° SSW visible
29 Oct 4.3 07:00:00 10° NW 07:03:31 34° W 07:07:06 10° SSW visible
